Flag for U.S.A. Weather past 2 weeks in Chandler, Arizona, U.S.A.

Now
43 °F

Passing clouds.


Feels Like: 37 °F
Forecast: 41 / 61 °F
Wind: 9 mph from Southeast

Location: Williams Gateway Airport

Current Time: Dec 25, 2014 at 4:32:02 AM

Latest Report: Dec 25, 2014 at 3:55 AM


Visibility: 10 mi

Pressure: 29.77 "Hg

Humidity: 66%

Dew point: 32 °F

Location of ChandlerLocation

Historic Weather in Chandler — Graph

°F

Chandler temperature yesterday

Maximum temperature yesterday: 61 °F (at 1:47 PM)
Minimum temperature yesterday: 32 °F (at 9:47 AM)
Average temperature yesterday: 45 °F

Past Weeks' High & Low Weather Summary

 TemperatureHumidityPressure
High75 °F (Dec 12, 11:59 AM)100% (Dec 13, 7:47 AM)30.27 "Hg (Dec 13, 7:47 AM)
Low32 °F (Dec 24, 9:47 AM)15% (Dec 23, 3:47 PM)29.78 "Hg (Dec 25, 2:35 AM)
Average50 °F76%30.07 "Hg
* Reported Dec 10 3:15 AM — Dec 25 3:15 AM, Chandler, Weather by CustomWeather, © 2014

Note: Actual official high and low records may vary slightly from our data, if they occured in-between our weather recording intervals... More about our weather records

Advertising

Chandler weather history for previous 24 hours

 ConditionsComfort  
Time TempWeatherWind HumidityBarometerVisibility
3:15 AM
Dec 25
43 °FClear.3 mph66%29.79 "Hg10 mi
2:55 AM45 °FClear.7 mph61%29.78 "Hg10 mi
2:35 AM45 °FClear.7 mph61%29.78 "Hg10 mi
2:15 AM46 °FClear.7 mph57%29.79 "Hg10 mi
1:55 AM46 °FClear.8 mph57%29.80 "Hg10 mi
1:35 AM45 °FClear.8 mph66%29.81 "Hg10 mi
1:15 AM45 °FClear.6 mph61%29.82 "Hg10 mi
12:55 AM45 °FClear.9 mph61%29.82 "Hg10 mi
12:35 AM45 °FClear.8 mph61%29.82 "Hg10 mi
12:15 AM46 °FClear.3 mph57%29.84 "Hg10 mi
11:47 PM
Dec 24
46 °FPassing clouds.8 mph57%29.83 "Hg20 mi
10:47 PM46 °FPassing clouds.3 mph57%29.87 "Hg20 mi
9:47 PM46 °FPassing clouds.3 mph57%29.89 "Hg20 mi
8:47 PM48 °FPassing clouds.No wind50%29.90 "Hg20 mi
7:47 PM50 °FPassing clouds.6 mph43%29.93 "Hg20 mi
6:47 PM54 °FPassing clouds.No wind33%29.96 "Hg20 mi
5:47 PM55 °FPassing clouds.3 mph31%29.97 "Hg20 mi
3:47 PM61 °FPartly sunny.No wind15%30.01 "Hg45 mi
2:47 PM61 °FScattered clouds.No wind15%30.01 "Hg45 mi
1:47 PM61 °FScattered clouds.5 mph16%30.04 "Hg45 mi
12:47 PM57 °FPassing clouds.No wind18%30.08 "Hg45 mi
11:47 AM55 °FPassing clouds.3 mph19%30.13 "Hg45 mi
10:47 AM54 °FPassing clouds.3 mph26%30.17 "Hg45 mi
9:47 AM32 °FPassing clouds.No wind64%30.18 "Hg45 mi
8:47 AM39 °FPassing clouds.No wind61%30.20 "Hg45 mi
7:47 AM34 °FSunny.3 mph65%30.19 "Hg45 mi
6:47 AM36 °FClear.3 mph60%30.17 "Hg20 mi
5:47 AM37 °FClear.5 mph60%30.17 "Hg20 mi
4:47 AM37 °FClear.3 mph60%30.17 "Hg20 mi
4:15 AM36 °FClear.3 mph65%30.18 "Hg10 mi
Weather by CustomWeather, © 2014

See weather overviewHow to use our weather pages